CST,Max TemperatureF,Mean TemperatureF,Min TemperatureF,Max Dew PointF,MeanDew PointF,Min DewpointF,Max Humidity, Mean Humidity, Min Humidity, Max Sea Level PressureIn, Mean Sea Level PressureIn, Min Sea Level PressureIn, Max VisibilityMiles, Mean VisibilityMiles, Min VisibilityMiles, Max Wind SpeedMPH, Mean Wind SpeedMPH, Max Gust SpeedMPH,PrecipitationIn, CloudCover, Events, WindDirDegrees
2013-11-1,73,61,49,41,36,31,64,42,24,30.18,29.92,29.81,10,10,7,20,10,29,0.00,0,,305
2013-11-2,69,54,39,36,31,25,77,45,19,30.35,30.25,30.18,10,10,5,10,4,,0.00,0,,26
2013-11-3,70,57,46,43,34,31,59,42,27,30.21,30.07,29.93,10,10,10,22,12,28,0.00,1,,159
2013-11-4,70,64,58,60,51,40,91,66,49,30.02,29.98,29.92,10,10,10,18,11,24,0.00,5,Rain,162
2013-11-5,72,67,62,66,63,60,97,86,70,29.99,29.95,29.90,10,10,4,17,10,26,0.00,7,Rain,161
2013-11-6,67,54,41,65,38,28,95,61,30,30.39,30.25,29.97,10,10,7,20,11,26,0.04,2,Rain,354
2013-11-7,66,50,33,38,31,24,92,57,21,30.52,30.44,30.38,10,10,5,9,2,,0.01,0,,163
2013-11-8,66,53,40,45,36,24,81,55,23,30.38,30.25,30.10,10,10,10,20,8,26,0.00,2,Rain,185
2013-11-9,73,62,51,54,44,36,81,53,35,30.18,30.09,30.05,10,10,10,17,8,22,0.00,2,,172
2013-11-10,70,61,52,57,55,51,99,82,57,30.33,30.25,30.18,10,8,0,10,6,,0.00,5,Fog,149
2013-11-11,73,61,49,58,53,49,99,79,49,30.31,30.23,30.17,10,7,0,9,5,21,0.00,3,Fog,178
2013-11-12,59,46,32,57,25,9,95,53,19,30.71,30.61,30.31,10,10,3,21,12,29,0.01,3,Rain,11
2013-11-13,57,38,20,26,17,10,81,47,15,30.70,30.54,30.34,10,10,10,13,3,18,0.00,0,,166
2013-11-14,63,50,37,37,28,22,60,43,28,30.34,30.11,29.95,10,10,10,17,10,24,0.00,3,,175
2013-11-15,78,62,47,53,43,38,77,52,23,29.97,29.88,29.79,10,10,10,16,9,24,0.00,0,,196
2013-11-16,85,74,62,60,54,51,73,57,30,29.81,29.73,29.63,10,9,5,22,16,31,0.00,1,,199
2013-11-17,86,73,60,61,44,29,80,43,13,30.04,29.84,29.70,10,10,5,25,12,31,0.00,0,,273
2013-11-18,73,61,49,34,28,23,53,30,15,30.21,30.13,30.04,10,9,1,13,6,20,0.00,0,Thunderstorm,62
2013-11-19,73,64,54,42,36,28,49,38,29,30.15,30.05,29.93,10,10,10,22,9,30,0.00,5,,140
2013-11-20,75,66,56,59,54,41,80,65,51,29.94,29.89,29.82,10,10,10,21,13,28,0.00,5,,175
2013-11-21,80,59,37,64,56,32,90,74,54,30.33,30.02,29.90,10,10,7,24,11,37,0.00,7,Thunderstorm,198
2013-11-22,37,34,30,32,29,25,100,89,76,30.51,30.45,30.33,10,8,2,21,15,28,0.01,8,Rain-Snow,356
2013-11-23,38,35,32,32,29,20,100,81,48,30.59,30.53,30.48,10,9,3,16,11,25,0.07,8,,17
2013-11-24,37,34,31,32,28,22,96,80,54,30.57,30.47,30.30,10,10,2,16,8,20,0.01,8,Rain-Thunderstorm,44
2013-11-25,39,36,32,36,33,31,99,90,75,30.30,30.20,30.14,10,10,4,10,3,,0.18,8,Rain,42
2013-11-26,52,43,34,34,29,21,95,64,31,30.42,30.28,30.21,10,10,5,24,11,36,0.00,3,,345
2013-11-27,47,36,25,26,21,15,91,56,30,30.49,30.40,30.31,10,10,10,10,5,,0.00,0,,1
2013-11-28,60,46,32,27,25,22,72,49,25,30.39,30.33,30.28,10,10,10,12,8,,0.00,0,,169
2013-11-29,63,48,32,43,32,26,81,56,30,30.45,30.36,30.29,10,10,10,15,7,20,0.00,0,,179
2013-11-30,70,56,42,50,47,41,98,72,44,30.30,30.22,30.11,10,10,7,21,8,25,0.00,1,,194